NSIGHT-1 (42726 NORAD) Tracking and Keplerian Element Data

This shows tracking and keplerian element data for the satellite.

Feedback or suggestion? Click here.




ElementValue
Catalog42726
NameNSIGHT-1
Epoch Orbit8377
Epoch Day317.62136308
Epoch Year2018
RAAN332.581
Inclination51.6389
Eccentricity0.000585
Argument of Perigee69.9733
Mean Anonmoly290.1892
Mean Motion15.64570671
Decay Rate0.00010967
L11 42726U 98067MF 18317.62136308 .00010967 00000-0 11674-3 0 9995
L22 42726 51.6389 332.5810 0005850 69.9733 290.1892 15.64570671 83770

Live tracking and technical data element details for NSIGHT-1 (NORAD 42726). NSIGHT-1 can be tracked NOW for your location showing map with azimuth and elevation plus other details from your city location.

Track the satellite on the map from your city or location and see movement details for azimuth, elevation, latitude, longitude, range, height, and movement on the map or in text.







IsCatalogInMostPopularTable: catalog: 42726, numindb: 142
Update: records affected: 1



GetName: 42726 NSIGHT-1

Hit Count: updated at: Wed, 14 Nov 2018 16:10:12 GMT